Hamilton Airport, Ontario

1:02 PM EDT on April 25, 2017 (GMT -0400)
Hamilton

Weather History for CYHM - October, 2013

Change the Weather History Date:

Tuesday, October 15, 2013

  Actual Average Record
Temperature  
Mean Temperature 54 °F -  
Max Temperature 65 °F 51 °F 68 °F (2016)
Min Temperature 42 °F 36 °F 32 °F (1996)
Degree Days  
Heating Degree Days 12    
Growing Degree Days 4 (Base 50)    
Moisture  
Dew Point 50 °F    
Average Humidity 85    
Maximum Humidity 100    
Minimum Humidity 61    
Precipitation  
Precipitation 0.00 in 0.10 in - ()
Sea Level Pressure  
Sea Level Pressure 30.13 in    
Wind  
Wind Speed 6 mph ()    
Max Wind Speed 10 mph    
Max Gust Speed -    
Visibility 13.6 miles    
Events      
Averages and records for this station are not official NWS values.
T = Trace of Precipitation, MM = Missing Value Source: Averaged Metar Reports

Daily Weather History Graph

Daily Weather History Graph

Search for Another Location

Airport or City:

Trip Planner

Search our weather history database for the weather conditions in past years. The results will help you decide how hot, cold, wet, or windy it might be!

Date:

Astronomy

Oct. 15, 2013 Rise Set
Actual Time 7:33 AM EDT 6:36 PM EDT
Civil Twilight 7:04 AM EDT 7:05 PM EDT
Nautical Twilight 6:31 AM EDT 7:38 PM EDT
Astronomical Twilight 5:59 AM EDT 8:10 PM EDT
Moon 4:45 PM EDT (10/15) 3:49 AM EDT (10/15)
Length of Visible Light 12h 00m
Length of Day
11h 02m
Waxing Gibbous, 87% of the Moon is Illuminated
Oct 15
Waxing Gibbous
Oct 18
Full
Oct 26
Last Quarter
Nov 3
New
Nov 10
First Quarter

Hourly Weather History & Observations

Time (EDT) Temp. Windchill Dew Point Humidity Pressure Visibility Wind Dir Wind Speed Gust Speed Precip Events Conditions
12:00 AM 48.2 °F - 44.6 °F 87% 30.31 in 15.0 mi North 5.8 mph - N/A   Scattered Clouds
1:00 AM 48.2 °F - 44.6 °F 87% 30.30 in 15.0 mi NE 6.9 mph - N/A   Partly Cloudy
2:00 AM 44 °F - 42 °F 89% 30.27 in 15 mi ENE 8.1 mph - -   Scattered Clouds
2:00 AM 44.6 °F 40.2 °F 41.0 °F 87% 30.27 in 15.0 mi ENE 8.1 mph - N/A   Partly Cloudy
3:00 AM 46.4 °F 44.3 °F 44.6 °F 93% 30.26 in 15.0 mi NNE 4.6 mph - N/A   Partly Cloudy
4:00 AM 46.4 °F 41.9 °F 42.8 °F 87% 30.24 in 15.0 mi North 9.2 mph - N/A   Mostly Cloudy
5:00 AM 44.6 °F 40.7 °F 42.8 °F 93% 30.23 in 15.0 mi NE 6.9 mph - N/A   Scattered Clouds
6:00 AM 44.6 °F 39.7 °F 42.8 °F 93% 30.22 in 15.0 mi NE 9.2 mph - N/A   Mostly Cloudy
7:00 AM 44.6 °F 39.7 °F 42.8 °F 93% 30.22 in 15.0 mi NE 9.2 mph - N/A   Mostly Cloudy
8:00 AM 47 °F - 46 °F 95% 30.22 in 15 mi ENE 9.2 mph - -   Mostly Cloudy
8:00 AM 46.4 °F 41.9 °F 46.4 °F 100% 30.22 in 15.0 mi ENE 9.2 mph - N/A   Mostly Cloudy
9:00 AM 51.8 °F - 50.0 °F 94% 30.20 in 15.0 mi ENE 10.4 mph - N/A   Mostly Cloudy
10:00 AM 55.4 °F - 48.2 °F 77% 30.20 in 15.0 mi ENE 10.4 mph - N/A   Mostly Cloudy
11:00 AM 59.0 °F - 50.0 °F 72% 30.18 in 15.0 mi East 6.9 mph - N/A   Mostly Cloudy
12:00 PM 60.8 °F - 51.8 °F 72% 30.16 in 15.0 mi East 3.5 mph - N/A   Mostly Cloudy
1:00 PM 64.4 °F - 53.6 °F 68% 30.13 in 15.0 mi ESE 9.2 mph - N/A   Mostly Cloudy
2:00 PM 65 °F - 55 °F 61% 30.09 in 15 mi ESE 6.9 mph - -   Mostly Cloudy
2:00 PM 64.4 °F - 55.4 °F 73% 30.09 in 15.0 mi ESE 6.9 mph - N/A   Mostly Cloudy
3:00 PM 62.6 °F - 53.6 °F 72% 30.07 in 15.0 mi ENE 10.4 mph - N/A   Mostly Cloudy
4:00 PM 62.6 °F - 55.4 °F 77% 30.05 in 12.0 mi NE 6.9 mph - N/A   Overcast
5:00 PM 60.8 °F - 55.4 °F 82% 30.04 in 15.0 mi NE 8.1 mph - N/A   Overcast
6:00 PM 59.0 °F - 55.4 °F 88% 30.02 in 12.0 mi NE 5.8 mph - N/A   Overcast
7:00 PM 59.0 °F - 55.4 °F 88% 29.99 in 12.0 mi NNE 5.8 mph - N/A   Overcast
8:00 PM 58 °F - 56 °F 90% 29.99 in 10 mi NE 4.6 mph - -   Overcast
8:00 PM 59.0 °F - 55.4 °F 88% 29.98 in 10.0 mi NNE 4.6 mph - N/A   Overcast
9:00 PM 59.0 °F - 57.2 °F 94% 29.96 in 8.0 mi North 2.3 mph - N/A   Overcast
10:00 PM 59.0 °F - 57.2 °F 94% 29.94 in 8.0 mi SE 4.6 mph - N/A   Overcast
11:00 PM 59.0 °F - 57.2 °F 94% 29.92 in 8.0 mi South 6.9 mph - N/A   Mostly Cloudy